User: anonymous   Login
Location: Bow
(51.5261°N, 0.0167°W)
Time: 07:25:58
(UTC+00:00)
Language:

Meteor 2-11 Rocket - Orbit

View from above orbital plane
View from above orbital plane
View from above satellite
View from above satellite

Ground track
Ground track

The orbit data is extracted from the following two-line orbital elements,

1 15100U 84072B   20329.77288569 +.00000012 +00000-0 -25747-5 0  9990
2 15100 082.5323 222.2486 0013107 061.5939 298.6541 13.84445419838550
Epoch (UTC): 24 November 2020 18:32:57
Eccentricity: 0.0013107
inclination: 82.5323°
perigee height: 938 km
apogee height: 958 km
right ascension of ascending node: 222.2486°
argument of perigee: 61.5939°
revolutions per day: 13.84445419
mean anomaly at epoch: 298.6541°
orbit number at epoch: 83855

The dashed part of the orbit path shows where the satellite is in the earth's shadow,  

DLR